HVN571 RCTP-VVTS

Flight info

Callsign HVN571
Flight time 3h 7m
Altitude 34000
Route CHALI1A CHALI T5 PARPA A577 KABAM N892 MIGUG/K0909F300 N892 MESOX Q15 CRA W15 VETOM VETOM5A
Aircraft B772/H-SDE2E3FGHIJ5LORVWXY/LB1D1

Departure

Time 2026-05-05 05:40
Airport Taiwan Taoyuan International Airport (RCTP)

Arrival

Time 2026-05-05 08:47
Airport Tan Son Nhat International Airport (VVTS)
Time Latitude Longitude Altitude Speed Heading
2026-05-05 05:11 25.07637 121.23501 120 ft 0 kts 319°
2026-05-05 05:25 25.07631 121.23507 121 ft 2 kts 319°
2026-05-05 05:25 25.07618 121.23519 121 ft 2 kts 317°
2026-05-05 05:26 25.07614 121.23523 121 ft 2 kts 317°
2026-05-05 05:26 25.07600 121.23538 121 ft 2 kts 318°
2026-05-05 05:26 25.07588 121.23550 121 ft 2 kts 309°
2026-05-05 05:26 25.07579 121.23563 121 ft 2 kts 295°
2026-05-05 05:27 25.07574 121.23577 121 ft 2 kts 278°
2026-05-05 05:27 25.07573 121.23593 121 ft 2 kts 255°
2026-05-05 05:27 25.07587 121.23620 121 ft 2 kts 230°
2026-05-05 05:28 25.07596 121.23632 121 ft 2 kts 230°
2026-05-05 05:28 25.07598 121.23634 121 ft 0 kts 230°
2026-05-05 05:32 25.07591 121.23625 121 ft 7 kts 230°
2026-05-05 05:32 25.07533 121.23549 121 ft 15 kts 230°
2026-05-05 05:33 25.07445 121.23437 121 ft 25 kts 229°
2026-05-05 05:33 25.07331 121.23293 121 ft 22 kts 229°
2026-05-05 05:33 25.07255 121.23194 121 ft 9 kts 227°
2026-05-05 05:33 25.07199 121.23190 121 ft 9 kts 150°
2026-05-05 05:34 25.07117 121.23263 121 ft 13 kts 146°
2026-05-05 05:34 25.07052 121.23253 121 ft 10 kts 224°
2026-05-05 05:34 25.06967 121.23147 121 ft 25 kts 229°
2026-05-05 05:34 25.06856 121.23009 121 ft 23 kts 228°
2026-05-05 05:35 25.06758 121.22884 121 ft 21 kts 229°
2026-05-05 05:35 25.06655 121.22754 121 ft 24 kts 229°
2026-05-05 05:35 25.06514 121.22576 121 ft 35 kts 229°
2026-05-05 05:35 25.06376 121.22403 121 ft 23 kts 229°
2026-05-05 05:36 25.06312 121.22321 121 ft 12 kts 229°
2026-05-05 05:36 25.06269 121.22265 121 ft 7 kts 229°
2026-05-05 05:36 25.06229 121.22238 121 ft 7 kts 186°
2026-05-05 05:36 25.06175 121.22243 121 ft 11 kts 164°
2026-05-05 05:37 25.06098 121.22308 121 ft 13 kts 135°
2026-05-05 05:37 25.06089 121.22341 121 ft 4 kts 77°
2026-05-05 05:37 25.06100 121.22367 121 ft 4 kts 56°
2026-05-05 05:37 25.06107 121.22378 121 ft 0 kts 52°
2026-05-05 05:39 25.06133 121.22412 121 ft 27 kts 49°
2026-05-05 05:39 25.06405 121.22769 121 ft 102 kts 50°
2026-05-05 05:39 25.07024 121.23547 181 ft 164 kts 47°
2026-05-05 05:40 25.07807 121.24491 971 ft 170 kts 50°
2026-05-05 05:40 25.08096 121.24946 1405 ft 173 kts 55°
2026-05-05 05:40 25.08301 121.25338 1762 ft 174 kts 59°
2026-05-05 05:41 25.09022 121.26274 2766 ft 148 kts 43°
2026-05-05 05:41 25.09764 121.27026 3277 ft 146 kts 44°
2026-05-05 05:41 25.10475 121.27910 3487 ft 162 kts 49°
2026-05-05 05:41 25.11228 121.28926 3694 ft 181 kts 52°
2026-05-05 05:42 25.12082 121.30060 3830 ft 205 kts 47°
2026-05-05 05:42 25.13363 121.30838 3919 ft 230 kts 19°
2026-05-05 05:42 25.15033 121.30807 4146 ft 254 kts 349°
2026-05-05 05:42 25.16635 121.29824 4617 ft 269 kts 321°
2026-05-05 05:43 25.17845 121.28220 5165 ft 276 kts 307°
2026-05-05 05:43 25.19061 121.26537 5717 ft 284 kts 310°
2026-05-05 05:43 25.20344 121.24836 6347 ft 290 kts 309°
2026-05-05 05:43 25.21630 121.23110 7102 ft 292 kts 308°
2026-05-05 05:44 25.22918 121.21364 7857 ft 293 kts 308°
2026-05-05 05:44 25.24199 121.19619 8587 ft 296 kts 307°
2026-05-05 05:44 25.25500 121.17843 9331 ft 297 kts 307°
2026-05-05 05:44 25.26665 121.16063 9984 ft 295 kts 294°
2026-05-05 05:45 25.26958 121.13807 10688 ft 290 kts 264°
2026-05-05 05:45 25.26460 121.11628 11205 ft 301 kts 250°
2026-05-05 05:45 25.25573 121.09466 11804 ft 314 kts 242°
2026-05-05 05:45 25.24363 121.07414 12598 ft 322 kts 236°
2026-05-05 05:46 25.23028 121.05351 13248 ft 337 kts 235°
2026-05-05 05:46 25.21612 121.03284 13998 ft 347 kts 233°
2026-05-05 05:46 25.19995 121.01237 14851 ft 355 kts 229°
2026-05-05 05:46 25.18235 120.99307 15802 ft 359 kts 226°
2026-05-05 05:47 25.16407 120.97420 16710 ft 362 kts 225°
2026-05-05 05:47 25.14565 120.95486 17524 ft 367 kts 226°
2026-05-05 05:47 25.12726 120.93521 18317 ft 371 kts 227°
2026-05-05 05:47 25.10870 120.91520 19087 ft 375 kts 227°
2026-05-05 05:48 25.08996 120.89500 19813 ft 379 kts 226°
2026-05-05 05:48 25.07129 120.87488 20523 ft 382 kts 226°
2026-05-05 05:48 25.05214 120.85427 21217 ft 385 kts 226°
2026-05-05 05:48 25.03281 120.83347 21869 ft 389 kts 226°
2026-05-05 05:49 25.01334 120.81253 22513 ft 393 kts 226°
2026-05-05 05:49 24.99358 120.79130 23141 ft 397 kts 226°
2026-05-05 05:49 24.97397 120.77022 23733 ft 401 kts 226°
2026-05-05 05:49 24.95832 120.75337 24209 ft 404 kts 226°
2026-05-05 05:50 24.93816 120.73143 24750 ft 407 kts 226°
2026-05-05 05:50 24.91796 120.70962 25436 ft 408 kts 227°
2026-05-05 05:50 24.89753 120.68766 25989 ft 411 kts 227°
2026-05-05 05:50 24.87692 120.66555 26449 ft 415 kts 227°
2026-05-05 05:51 24.85618 120.64333 26969 ft 417 kts 227°
2026-05-05 05:51 24.83520 120.62087 27370 ft 422 kts 227°
2026-05-05 05:51 24.81402 120.59820 27826 ft 424 kts 227°
2026-05-05 05:51 24.79282 120.57552 28182 ft 428 kts 227°
2026-05-05 05:52 24.77159 120.55282 28566 ft 431 kts 227°
2026-05-05 05:52 24.74990 120.52969 28948 ft 433 kts 227°
2026-05-05 05:52 24.72709 120.50775 29305 ft 438 kts 223°
2026-05-05 05:52 24.70273 120.48719 29627 ft 443 kts 221°
2026-05-05 05:53 24.67743 120.46746 29914 ft 447 kts 219°
2026-05-05 05:53 24.65167 120.44830 30251 ft 449 kts 219°
2026-05-05 05:53 24.62577 120.42903 30671 ft 448 kts 219°
2026-05-05 05:53 24.60035 120.40994 31050 ft 447 kts 220°
2026-05-05 05:54 24.57466 120.39057 31380 ft 447 kts 220°
2026-05-05 05:54 24.54899 120.37119 31797 ft 445 kts 220°
2026-05-05 05:54 24.52348 120.35193 32188 ft 444 kts 220°
2026-05-05 05:54 24.49794 120.33264 32502 ft 445 kts 220°
2026-05-05 05:55 24.47248 120.31344 32884 ft 443 kts 220°
2026-05-05 05:55 24.44706 120.29421 33186 ft 443 kts 220°
2026-05-05 05:55 24.42187 120.27475 33559 ft 441 kts 221°
2026-05-05 05:55 24.39691 120.25514 33907 ft 440 kts 221°
2026-05-05 05:56 24.37225 120.23584 34026 ft 440 kts 221°
2026-05-05 05:56 24.34726 120.21639 34025 ft 440 kts 221°
2026-05-05 05:56 24.29725 120.17760 34023 ft 439 kts 221°
2026-05-05 05:57 24.24723 120.13886 34021 ft 440 kts 221°
2026-05-05 05:57 24.19750 120.10039 34018 ft 441 kts 221°
2026-05-05 05:58 24.14732 120.06155 34016 ft 440 kts 221°
2026-05-05 05:58 24.09716 120.02276 34014 ft 440 kts 221°
2026-05-05 05:59 24.04707 119.98412 34011 ft 440 kts 221°
2026-05-05 05:59 24.00233 119.95787 34012 ft 451 kts 206°
2026-05-05 06:00 23.97004 119.95097 33994 ft 467 kts 193°
2026-05-05 06:00 23.93674 119.95234 34010 ft 484 kts 181°
2026-05-05 06:00 23.86996 119.96558 34004 ft 488 kts 178°
2026-05-05 06:01 23.80328 119.97726 34002 ft 487 kts 181°
2026-05-05 06:01 23.73609 119.98611 34001 ft 485 kts 182°
2026-05-05 06:02 23.66911 119.99435 33999 ft 484 kts 182°
2026-05-05 06:02 23.60245 120.00275 33999 ft 484 kts 182°
2026-05-05 06:03 23.53549 120.01122 33998 ft 484 kts 182°
2026-05-05 06:03 23.46851 120.01968 33997 ft 484 kts 182°
2026-05-05 06:04 23.40149 120.02817 33997 ft 485 kts 181°
2026-05-05 06:04 23.33443 120.03662 33996 ft 485 kts 181°
2026-05-05 06:05 23.26747 120.04505 33996 ft 485 kts 181°
2026-05-05 06:05 23.20031 120.05349 33995 ft 486 kts 181°
2026-05-05 06:06 23.13296 120.06141 33994 ft 485 kts 184°
2026-05-05 06:06 23.06633 120.06245 33995 ft 480 kts 189°
2026-05-05 06:07 22.99967 120.05964 33994 ft 477 kts 189°
2026-05-05 06:07 22.93325 120.05729 33994 ft 477 kts 189°
2026-05-05 06:08 22.86660 120.05555 33988 ft 479 kts 188°
2026-05-05 06:08 22.80028 120.05398 33984 ft 480 kts 188°
2026-05-05 06:09 22.73332 120.05242 33976 ft 480 kts 188°
2026-05-05 06:09 22.66634 120.05088 33966 ft 480 kts 188°
2026-05-05 06:10 22.59951 120.04934 33959 ft 480 kts 188°
2026-05-05 06:10 22.53256 120.04781 33942 ft 481 kts 188°
2026-05-05 06:11 22.46565 120.04627 33938 ft 481 kts 188°
2026-05-05 06:11 22.39898 120.04475 33938 ft 482 kts 188°
2026-05-05 06:12 22.33165 120.04321 33938 ft 482 kts 188°
2026-05-05 06:12 22.26463 120.04168 33939 ft 482 kts 188°
2026-05-05 06:13 22.19746 120.04015 33940 ft 482 kts 188°
2026-05-05 06:13 22.13043 120.03862 33940 ft 483 kts 188°
2026-05-05 06:14 22.09136 120.03773 33940 ft 483 kts 188°
2026-05-05 06:14 22.07134 120.03728 33944 ft 482 kts 188°
2026-05-05 06:15 22.00379 120.03368 33941 ft 480 kts 193°
2026-05-05 06:15 21.97047 120.02874 33939 ft 477 kts 195°
2026-05-05 06:16 21.90338 120.01688 33941 ft 475 kts 195°
2026-05-05 06:16 21.83772 120.00683 33942 ft 476 kts 194°
2026-05-05 06:17 21.77197 119.99690 33943 ft 476 kts 194°
2026-05-05 06:17 21.70731 119.98709 33942 ft 476 kts 194°
2026-05-05 06:18 21.64151 119.97710 33943 ft 476 kts 194°
2026-05-05 06:18 21.57578 119.96712 33943 ft 476 kts 194°
2026-05-05 06:19 21.51009 119.95716 33943 ft 477 kts 194°
2026-05-05 06:19 21.47848 119.95237 33944 ft 477 kts 194°
2026-05-05 06:20 21.42209 119.94383 33949 ft 477 kts 194°
2026-05-05 06:20 21.35639 119.93385 33949 ft 477 kts 194°
2026-05-05 06:21 21.29046 119.92384 33948 ft 477 kts 194°
2026-05-05 06:21 21.22710 119.91425 33947 ft 477 kts 194°
2026-05-05 06:22 21.16118 119.90430 33947 ft 478 kts 194°
2026-05-05 06:22 21.09533 119.89437 33947 ft 478 kts 194°
2026-05-05 06:23 21.02962 119.88349 33941 ft 473 kts 199°
2026-05-05 06:23 20.99881 119.87186 33945 ft 468 kts 210°
2026-05-05 06:23 20.97100 119.85401 33945 ft 464 kts 221°
2026-05-05 06:24 20.92514 119.80695 33946 ft 456 kts 231°
2026-05-05 06:24 20.88271 119.75675 33944 ft 454 kts 231°
2026-05-05 06:25 20.83915 119.70758 33943 ft 455 kts 229°
2026-05-05 06:25 20.79475 119.65931 33942 ft 456 kts 229°
2026-05-05 06:26 20.75001 119.61109 33942 ft 456 kts 229°
2026-05-05 06:26 20.70557 119.56304 33932 ft 456 kts 229°
2026-05-05 06:27 20.63844 119.49083 33931 ft 457 kts 228°
2026-05-05 06:28 20.59360 119.44271 33931 ft 457 kts 228°
2026-05-05 06:28 20.54867 119.39456 33930 ft 457 kts 228°
2026-05-05 06:29 20.50393 119.34665 33930 ft 457 kts 228°
2026-05-05 06:29 20.45896 119.29855 33929 ft 457 kts 228°
2026-05-05 06:30 20.42022 119.25714 33929 ft 457 kts 228°
2026-05-05 06:30 20.37516 119.20902 33929 ft 458 kts 228°
2026-05-05 06:31 20.33033 119.16119 33928 ft 458 kts 228°
2026-05-05 06:31 20.28523 119.11311 33927 ft 458 kts 228°
2026-05-05 06:32 20.24013 119.06507 33927 ft 458 kts 228°
2026-05-05 06:32 20.19521 119.01727 33927 ft 459 kts 228°
2026-05-05 06:33 20.14999 118.96919 33926 ft 459 kts 228°
2026-05-05 06:33 20.10482 118.92120 33924 ft 459 kts 228°
2026-05-05 06:34 20.05988 118.87350 33924 ft 459 kts 228°
2026-05-05 06:34 20.01461 118.82549 33923 ft 459 kts 228°
2026-05-05 06:35 19.96934 118.77752 33923 ft 460 kts 228°
2026-05-05 06:35 19.92380 118.72930 33923 ft 463 kts 228°
2026-05-05 06:36 19.87817 118.68104 33923 ft 463 kts 228°
2026-05-05 06:36 19.83277 118.63306 33922 ft 462 kts 228°
2026-05-05 06:37 19.78713 118.58486 33922 ft 462 kts 228°
2026-05-05 06:37 19.74158 118.53680 33922 ft 462 kts 228°
2026-05-05 06:38 19.69625 118.48901 33921 ft 462 kts 228°
2026-05-05 06:38 19.65067 118.44100 33921 ft 462 kts 228°
2026-05-05 06:39 19.60510 118.39304 33921 ft 462 kts 228°
2026-05-05 06:39 19.55940 118.34495 33921 ft 462 kts 228°
2026-05-05 06:40 19.51370 118.29678 33921 ft 462 kts 228°
2026-05-05 06:40 19.46801 118.24885 33921 ft 463 kts 228°
2026-05-05 06:41 19.42252 118.20118 33921 ft 463 kts 228°
2026-05-05 06:41 19.37660 118.15311 33921 ft 463 kts 228°
2026-05-05 06:42 19.33069 118.10504 33920 ft 463 kts 228°
2026-05-05 06:42 19.28482 118.05712 33921 ft 463 kts 228°
2026-05-05 06:43 19.23913 118.00927 33921 ft 464 kts 228°
2026-05-05 06:43 19.19321 117.96122 33920 ft 464 kts 228°
2026-05-05 06:44 19.14743 117.91349 33921 ft 464 kts 228°
2026-05-05 06:44 19.10129 117.86543 33921 ft 464 kts 228°
2026-05-05 06:45 19.05549 117.81775 33921 ft 465 kts 227°
2026-05-05 06:45 19.00933 117.76969 33921 ft 465 kts 227°
2026-05-05 06:46 18.96298 117.72160 33921 ft 465 kts 227°
2026-05-05 06:46 18.91702 117.67394 33921 ft 466 kts 227°
2026-05-05 06:47 18.87047 117.62570 33921 ft 466 kts 227°
2026-05-05 06:47 18.82440 117.57797 33922 ft 466 kts 227°
2026-05-05 06:48 18.77807 117.53000 33922 ft 466 kts 227°
2026-05-05 06:48 18.73174 117.48181 33922 ft 467 kts 227°
2026-05-05 06:49 18.68541 117.43378 33922 ft 467 kts 227°
2026-05-05 06:49 18.63905 117.38581 33923 ft 467 kts 227°
2026-05-05 06:50 18.59345 117.33868 33923 ft 467 kts 227°
2026-05-05 06:50 18.54700 117.29072 33923 ft 467 kts 227°
2026-05-05 06:51 18.50078 117.24304 33923 ft 468 kts 227°
2026-05-05 06:51 18.45418 117.19500 33923 ft 468 kts 227°
2026-05-05 06:52 18.40762 117.14704 33921 ft 468 kts 227°
2026-05-05 06:52 18.36106 117.09911 33921 ft 468 kts 227°
2026-05-05 06:53 18.31443 117.05117 33921 ft 468 kts 227°
2026-05-05 06:53 18.26808 117.00355 33916 ft 468 kts 227°
2026-05-05 06:54 18.22141 116.95563 33917 ft 468 kts 227°
2026-05-05 06:54 18.17471 116.90771 33907 ft 469 kts 227°
2026-05-05 06:55 18.12825 116.86008 33904 ft 469 kts 227°
2026-05-05 06:55 18.08146 116.81216 33904 ft 469 kts 227°
2026-05-05 06:56 18.03458 116.76417 33904 ft 469 kts 227°
2026-05-05 06:56 17.98810 116.71653 33904 ft 469 kts 227°
2026-05-05 06:57 17.94112 116.66846 33904 ft 471 kts 227°
2026-05-05 06:57 17.89396 116.62035 33905 ft 472 kts 227°
2026-05-05 06:58 17.84710 116.57259 33905 ft 472 kts 227°
2026-05-05 06:58 17.80005 116.52464 33905 ft 472 kts 227°
2026-05-05 06:59 17.75288 116.47661 33905 ft 472 kts 227°
2026-05-05 06:59 17.70569 116.42869 33906 ft 472 kts 227°
2026-05-05 07:00 17.65847 116.38076 33906 ft 472 kts 227°
2026-05-05 07:00 17.61145 116.33308 33906 ft 472 kts 227°
2026-05-05 07:01 17.56410 116.28508 33906 ft 472 kts 227°
2026-05-05 07:01 17.51689 116.23719 33906 ft 472 kts 227°
2026-05-05 07:02 17.46976 116.18923 33906 ft 472 kts 227°
2026-05-05 07:02 17.42278 116.14155 33906 ft 472 kts 227°
2026-05-05 07:03 17.37555 116.09371 33900 ft 472 kts 227°
2026-05-05 07:03 17.32843 116.04604 33900 ft 473 kts 227°
2026-05-05 07:04 17.28893 116.00610 33900 ft 473 kts 227°
2026-05-05 07:04 17.24149 115.95818 33900 ft 473 kts 227°
2026-05-05 07:05 17.19434 115.91058 33900 ft 474 kts 226°
2026-05-05 07:05 17.14687 115.86270 33901 ft 474 kts 226°
2026-05-05 07:06 17.09939 115.81484 33900 ft 474 kts 226°
2026-05-05 07:06 17.05184 115.76695 33901 ft 475 kts 226°
2026-05-05 07:07 17.00414 115.71895 33901 ft 475 kts 226°
2026-05-05 07:07 16.95675 115.67129 33901 ft 475 kts 226°
2026-05-05 07:08 16.90902 115.62332 33901 ft 475 kts 226°
2026-05-05 07:08 16.86130 115.57540 33901 ft 476 kts 226°
2026-05-05 07:09 16.81352 115.52746 33901 ft 476 kts 226°
2026-05-05 07:09 16.76603 115.47984 33901 ft 476 kts 226°
2026-05-05 07:10 16.71816 115.43187 33885 ft 476 kts 226°
2026-05-05 07:10 16.67024 115.38390 33884 ft 476 kts 226°
2026-05-05 07:11 16.62242 115.33605 33884 ft 476 kts 226°
2026-05-05 07:11 16.57472 115.28836 33884 ft 477 kts 226°
2026-05-05 07:12 16.52700 115.24068 33885 ft 477 kts 226°
2026-05-05 07:12 16.47910 115.19287 33878 ft 477 kts 226°
2026-05-05 07:13 16.43116 115.14504 33879 ft 477 kts 226°
2026-05-05 07:13 16.38322 115.09723 33880 ft 476 kts 226°
2026-05-05 07:14 16.33531 115.04952 33880 ft 477 kts 226°
2026-05-05 07:14 16.28735 115.00178 33880 ft 477 kts 226°
2026-05-05 07:15 16.23930 114.95398 33880 ft 477 kts 226°
2026-05-05 07:15 16.19130 114.90626 33881 ft 477 kts 226°
2026-05-05 07:16 16.14335 114.85863 33881 ft 477 kts 226°
2026-05-05 07:16 16.09562 114.81125 33877 ft 477 kts 226°
2026-05-05 07:17 16.04758 114.76360 33876 ft 477 kts 226°
2026-05-05 07:17 15.99949 114.71593 33869 ft 477 kts 226°
2026-05-05 07:18 15.95138 114.66827 33869 ft 478 kts 226°
2026-05-05 07:18 15.90311 114.62048 33869 ft 479 kts 226°
2026-05-05 07:19 15.85511 114.57300 33869 ft 479 kts 226°
2026-05-05 07:19 15.80670 114.52514 33870 ft 478 kts 226°
2026-05-05 07:20 15.76058 114.47958 33870 ft 478 kts 226°
2026-05-05 07:20 15.71221 114.43183 33870 ft 478 kts 226°
2026-05-05 07:21 15.66396 114.38423 33870 ft 478 kts 226°
2026-05-05 07:21 15.61586 114.33682 33871 ft 478 kts 226°
2026-05-05 07:22 15.56753 114.28920 33871 ft 478 kts 226°
2026-05-05 07:22 15.51918 114.24160 33871 ft 479 kts 226°
2026-05-05 07:23 15.47092 114.19399 33871 ft 479 kts 226°
2026-05-05 07:23 15.42277 114.14665 33872 ft 479 kts 226°
2026-05-05 07:24 15.37483 114.09959 33872 ft 479 kts 226°
2026-05-05 07:24 15.32678 114.05244 33622 ft 463 kts 225°
2026-05-05 07:24 15.30327 114.02939 33110 ft 467 kts 225°
2026-05-05 07:25 15.27969 114.00642 32629 ft 470 kts 224°
2026-05-05 07:25 15.25464 113.98455 32266 ft 472 kts 220°
2026-05-05 07:25 15.22842 113.96402 31917 ft 472 kts 218°
2026-05-05 07:25 15.20149 113.94434 31498 ft 474 kts 216°
2026-05-05 07:26 15.17415 113.92499 31072 ft 476 kts 216°
2026-05-05 07:26 15.14679 113.90546 30663 ft 478 kts 216°
2026-05-05 07:26 15.11953 113.88569 30263 ft 479 kts 217°
2026-05-05 07:26 15.09228 113.86570 30019 ft 480 kts 217°
2026-05-05 07:27 15.06502 113.84561 29950 ft 481 kts 217°
2026-05-05 07:27 15.01088 113.80562 29880 ft 482 kts 217°
2026-05-05 07:28 14.95635 113.76519 29878 ft 482 kts 217°
2026-05-05 07:28 14.90164 113.72467 29879 ft 483 kts 217°
2026-05-05 07:29 14.84684 113.68415 29874 ft 484 kts 217°
2026-05-05 07:29 14.79233 113.64388 29873 ft 485 kts 217°
2026-05-05 07:30 14.73744 113.60329 29874 ft 485 kts 217°
2026-05-05 07:30 14.65492 113.54241 29874 ft 486 kts 217°
2026-05-05 07:31 14.59974 113.50176 29874 ft 486 kts 216°
2026-05-05 07:31 14.54488 113.46138 29873 ft 487 kts 216°
2026-05-05 07:32 14.48965 113.42071 29874 ft 487 kts 217°
2026-05-05 07:32 14.43452 113.38001 29874 ft 487 kts 217°
2026-05-05 07:33 14.37927 113.33924 29874 ft 487 kts 217°
2026-05-05 07:33 14.32450 113.29884 29875 ft 487 kts 217°
2026-05-05 07:34 14.26928 113.25813 29874 ft 487 kts 216°
2026-05-05 07:34 14.21410 113.21734 29875 ft 487 kts 217°
2026-05-05 07:35 14.15897 113.17665 29875 ft 487 kts 216°
2026-05-05 07:35 14.10379 113.13604 29875 ft 487 kts 216°
2026-05-05 07:36 14.04893 113.09569 29875 ft 487 kts 216°
2026-05-05 07:36 13.99645 113.05195 29876 ft 486 kts 226°
2026-05-05 07:37 13.95564 112.99651 29876 ft 487 kts 238°
2026-05-05 07:37 13.92250 112.93543 29876 ft 488 kts 243°
2026-05-05 07:38 13.89183 112.87323 29875 ft 487 kts 243°
2026-05-05 07:38 13.86092 112.81163 29876 ft 487 kts 243°
2026-05-05 07:39 13.82949 112.74971 29876 ft 487 kts 243°
2026-05-05 07:39 13.79816 112.68790 29876 ft 486 kts 243°
2026-05-05 07:40 13.76679 112.62616 29877 ft 486 kts 243°
2026-05-05 07:40 13.73556 112.56488 29877 ft 486 kts 242°
2026-05-05 07:41 13.70413 112.50328 29877 ft 485 kts 242°
2026-05-05 07:41 13.67274 112.44185 29878 ft 485 kts 242°
2026-05-05 07:42 13.64154 112.38081 29877 ft 485 kts 242°
2026-05-05 07:42 13.61006 112.31932 29877 ft 485 kts 242°
2026-05-05 07:43 13.57882 112.25832 29878 ft 485 kts 242°
2026-05-05 07:43 13.54731 112.19683 29878 ft 485 kts 242°
2026-05-05 07:44 13.51585 112.13549 29878 ft 485 kts 242°
2026-05-05 07:44 13.48440 112.07422 29878 ft 485 kts 242°
2026-05-05 07:45 13.45296 112.01301 29878 ft 485 kts 242°
2026-05-05 07:45 13.42147 111.95175 29879 ft 485 kts 242°
2026-05-05 07:46 13.39014 111.89084 29879 ft 485 kts 242°
2026-05-05 07:46 13.35861 111.82958 29878 ft 485 kts 242°
2026-05-05 07:47 13.32704 111.76831 29879 ft 485 kts 242°
2026-05-05 07:47 13.29567 111.70746 29878 ft 485 kts 242°
2026-05-05 07:48 13.26939 111.65652 29879 ft 485 kts 242°
2026-05-05 07:48 13.23776 111.59523 29878 ft 485 kts 242°
2026-05-05 07:49 13.20609 111.53393 29879 ft 485 kts 242°
2026-05-05 07:49 13.17710 111.47785 29875 ft 485 kts 242°
2026-05-05 07:50 13.14500 111.41578 29879 ft 485 kts 242°
2026-05-05 07:50 13.11344 111.35482 29879 ft 485 kts 242°
2026-05-05 07:51 13.08177 111.29369 29879 ft 485 kts 242°
2026-05-05 07:51 13.05020 111.23279 29879 ft 485 kts 242°
2026-05-05 07:52 13.01840 111.17148 29879 ft 485 kts 242°
2026-05-05 07:52 12.98669 111.11039 29878 ft 485 kts 242°
2026-05-05 07:53 12.95494 111.04928 29879 ft 485 kts 242°
2026-05-05 07:53 12.92315 110.98812 29878 ft 485 kts 242°
2026-05-05 07:54 12.89160 110.92743 29877 ft 485 kts 242°
2026-05-05 07:54 12.85979 110.86614 29876 ft 485 kts 242°
2026-05-05 07:55 12.82798 110.80511 29876 ft 485 kts 242°
2026-05-05 07:55 12.79629 110.74438 29876 ft 485 kts 242°
2026-05-05 07:56 12.76444 110.68339 29876 ft 485 kts 242°
2026-05-05 07:56 12.73251 110.62222 29876 ft 486 kts 242°
2026-05-05 07:57 12.70074 110.56155 29878 ft 486 kts 242°
2026-05-05 07:57 12.67020 110.50326 29877 ft 486 kts 242°
2026-05-05 07:58 12.63978 110.44523 29879 ft 486 kts 242°
2026-05-05 07:58 12.60821 110.38503 29878 ft 486 kts 242°
2026-05-05 07:59 12.57647 110.32451 29878 ft 486 kts 242°
2026-05-05 07:59 12.55381 110.28108 29878 ft 485 kts 242°
2026-05-05 08:00 12.52386 110.22381 29878 ft 486 kts 242°
2026-05-05 08:00 12.49179 110.16270 29877 ft 486 kts 242°
2026-05-05 08:01 12.45993 110.10204 29877 ft 486 kts 242°
2026-05-05 08:01 12.42783 110.04097 29877 ft 486 kts 242°
2026-05-05 08:02 12.39582 109.98010 29877 ft 486 kts 242°
2026-05-05 08:02 12.36373 109.91913 29876 ft 486 kts 242°
2026-05-05 08:03 12.33177 109.85843 29877 ft 486 kts 242°
2026-05-05 08:03 12.29962 109.79743 29877 ft 486 kts 242°
2026-05-05 08:04 12.26756 109.73643 29876 ft 486 kts 242°
2026-05-05 08:04 12.23562 109.67591 29876 ft 486 kts 242°
2026-05-05 08:05 12.20337 109.61490 29876 ft 486 kts 242°
2026-05-05 08:05 12.17161 109.55484 29876 ft 485 kts 242°
2026-05-05 08:06 12.13910 109.49338 29876 ft 485 kts 242°
2026-05-05 08:06 12.10734 109.43292 29877 ft 485 kts 242°
2026-05-05 08:07 12.07518 109.37217 29883 ft 486 kts 242°
2026-05-05 08:07 12.04296 109.31137 29879 ft 486 kts 242°
2026-05-05 08:08 12.01100 109.25059 29874 ft 485 kts 243°
2026-05-05 08:08 11.98510 109.18683 29876 ft 486 kts 251°
2026-05-05 08:09 11.96676 109.12060 29879 ft 488 kts 256°
2026-05-05 08:09 11.95150 109.05825 29861 ft 487 kts 255°
2026-05-05 08:10 11.93486 108.99603 29879 ft 487 kts 254°
2026-05-05 08:10 11.91671 108.92912 29866 ft 488 kts 253°
2026-05-05 08:11 11.89653 108.86283 29870 ft 487 kts 252°
2026-05-05 08:11 11.87769 108.79671 29873 ft 488 kts 254°
2026-05-05 08:12 11.85926 108.73054 29873 ft 488 kts 253°
2026-05-05 08:12 11.84021 108.66321 29871 ft 488 kts 253°
2026-05-05 08:13 11.82177 108.59727 29869 ft 487 kts 254°
2026-05-05 08:13 11.80628 108.54163 29869 ft 487 kts 253°
2026-05-05 08:14 11.78815 108.47674 29865 ft 487 kts 253°
2026-05-05 08:14 11.76946 108.41017 29861 ft 486 kts 253°
2026-05-05 08:15 11.74384 108.34644 29859 ft 487 kts 242°
2026-05-05 08:15 11.70853 108.28740 29857 ft 486 kts 234°
2026-05-05 08:16 11.66856 108.23181 29854 ft 486 kts 233°
2026-05-05 08:16 11.62930 108.17556 29850 ft 486 kts 234°
2026-05-05 08:17 11.59040 108.11959 29500 ft 486 kts 234°
2026-05-05 08:17 11.57094 108.09170 28749 ft 483 kts 234°
2026-05-05 08:17 11.55133 108.06358 27672 ft 487 kts 234°
2026-05-05 08:18 11.53180 108.03558 26936 ft 482 kts 234°
2026-05-05 08:18 11.51260 108.00806 26235 ft 476 kts 234°
2026-05-05 08:18 11.49804 107.98718 25706 ft 472 kts 234°
2026-05-05 08:18 11.47907 107.95998 24981 ft 468 kts 234°
2026-05-05 08:19 11.46021 107.93295 24267 ft 463 kts 234°
2026-05-05 08:19 11.44159 107.90627 23556 ft 459 kts 234°
2026-05-05 08:19 11.42936 107.88874 23087 ft 456 kts 234°
2026-05-05 08:19 11.42433 107.88153 22899 ft 455 kts 234°
2026-05-05 08:20 11.41395 107.86667 22507 ft 452 kts 234°
2026-05-05 08:20 11.40243 107.85004 22092 ft 449 kts 234°
2026-05-05 08:20 11.38452 107.82425 21390 ft 445 kts 234°
2026-05-05 08:20 11.36082 107.79025 20484 ft 440 kts 234°
2026-05-05 08:21 11.34316 107.76497 19802 ft 436 kts 234°
2026-05-05 08:21 11.32566 107.73992 19129 ft 432 kts 234°
2026-05-05 08:21 11.31412 107.72342 18685 ft 429 kts 234°
2026-05-05 08:21 11.29683 107.69869 18021 ft 425 kts 234°
2026-05-05 08:22 11.27985 107.67441 17367 ft 421 kts 234°
2026-05-05 08:22 11.26292 107.65021 16657 ft 419 kts 234°
2026-05-05 08:22 11.24603 107.62617 16027 ft 414 kts 233°
2026-05-05 08:22 11.23491 107.61162 15625 ft 410 kts 230°
2026-05-05 08:23 11.21525 107.58879 14985 ft 405 kts 226°
2026-05-05 08:23 11.19552 107.56844 14353 ft 402 kts 223°
2026-05-05 08:23 11.18231 107.55544 13890 ft 402 kts 223°
2026-05-05 08:23 11.16152 107.53505 13293 ft 397 kts 222°
2026-05-05 08:24 11.14181 107.51609 12764 ft 392 kts 223°
2026-05-05 08:24 11.12197 107.49661 12175 ft 390 kts 223°
2026-05-05 08:24 11.10278 107.47761 11526 ft 390 kts 223°
2026-05-05 08:24 11.08346 107.45839 11242 ft 384 kts 223°
2026-05-05 08:25 11.06476 107.43978 11115 ft 368 kts 223°
2026-05-05 08:25 11.04692 107.42190 10998 ft 352 kts 224°
2026-05-05 08:25 11.03202 107.40271 10941 ft 335 kts 236°
2026-05-05 08:25 11.02091 107.38287 10889 ft 317 kts 239°
2026-05-05 08:26 11.00958 107.36388 10706 ft 311 kts 239°
2026-05-05 08:26 11.00019 107.34388 10242 ft 314 kts 248°
2026-05-05 08:26 10.99355 107.32397 9985 ft 308 kts 253°
2026-05-05 08:26 10.98789 107.30282 9717 ft 302 kts 255°
2026-05-05 08:27 10.98240 107.28245 9498 ft 295 kts 254°
2026-05-05 08:27 10.97678 107.26299 9455 ft 287 kts 253°
2026-05-05 08:27 10.97090 107.24320 9199 ft 302 kts 253°
2026-05-05 08:27 10.96490 107.22316 8923 ft 297 kts 253°
2026-05-05 08:28 10.95900 107.20313 8619 ft 294 kts 253°
2026-05-05 08:28 10.95313 107.18325 8320 ft 290 kts 253°
2026-05-05 08:28 10.94731 107.16359 8025 ft 287 kts 253°
2026-05-05 08:28 10.94163 107.14445 7739 ft 284 kts 253°
2026-05-05 08:29 10.93592 107.12526 7453 ft 281 kts 253°
2026-05-05 08:29 10.93027 107.10625 7176 ft 279 kts 253°
2026-05-05 08:29 10.92465 107.08735 6887 ft 278 kts 253°
2026-05-05 08:30 10.91875 107.06753 6583 ft 275 kts 253°
2026-05-05 08:30 10.91323 107.04899 6311 ft 272 kts 253°
2026-05-05 08:30 10.90776 107.03064 6040 ft 269 kts 253°
2026-05-05 08:30 10.90235 107.01247 5769 ft 267 kts 253°
2026-05-05 08:31 10.89707 106.99471 5506 ft 265 kts 253°
2026-05-05 08:31 10.89174 106.97683 5239 ft 262 kts 253°
2026-05-05 08:31 10.88646 106.95913 4975 ft 260 kts 253°
2026-05-05 08:31 10.88129 106.94179 4716 ft 258 kts 253°
2026-05-05 08:32 10.87628 106.92496 4465 ft 255 kts 253°
2026-05-05 08:32 10.87184 106.90673 4196 ft 253 kts 258°
2026-05-05 08:32 10.87092 106.88902 3946 ft 249 kts 273°
2026-05-05 08:32 10.87365 106.87204 3710 ft 246 kts 283°
2026-05-05 08:33 10.87737 106.85512 3459 ft 244 kts 283°
2026-05-05 08:33 10.88057 106.83824 3212 ft 243 kts 280°
2026-05-05 08:33 10.88113 106.82092 2966 ft 245 kts 266°
2026-05-05 08:33 10.87780 106.80390 2722 ft 247 kts 255°
2026-05-05 08:34 10.87310 106.78952 2571 ft 248 kts 249°
2026-05-05 08:34 10.86587 106.77131 2250 ft 253 kts 247°
2026-05-05 08:34 10.85960 106.75512 1918 ft 237 kts 248°
2026-05-05 08:34 10.85409 106.74059 1610 ft 204 kts 247°
2026-05-05 08:35 10.84934 106.72800 1377 ft 177 kts 246°
2026-05-05 08:35 10.84523 106.71714 1187 ft 152 kts 245°
2026-05-05 08:35 10.84161 106.70754 981 ft 141 kts 245°
2026-05-05 08:35 10.83813 106.69830 862 ft 136 kts 245°
2026-05-05 08:36 10.83486 106.68931 1159 ft 137 kts 246°
2026-05-05 08:36 10.83143 106.68016 1462 ft 141 kts 246°
2026-05-05 08:36 10.82777 106.67049 1709 ft 152 kts 248°
2026-05-05 08:36 10.82382 106.66003 2146 ft 176 kts 249°
2026-05-05 08:37 10.82184 106.64703 2369 ft 199 kts 271°
2026-05-05 08:37 10.82584 106.63372 2298 ft 217 kts 294°
2026-05-05 08:37 10.83252 106.61881 2265 ft 234 kts 294°
2026-05-05 08:37 10.84216 106.60547 2097 ft 238 kts 318°
2026-05-05 08:38 10.85717 106.59844 1895 ft 241 kts 348°
2026-05-05 08:38 10.87344 106.60000 1894 ft 237 kts 19°
2026-05-05 08:38 10.88674 106.60960 1982 ft 234 kts 49°
2026-05-05 08:38 10.89299 106.62058 2008 ft 231 kts 66°
2026-05-05 08:39 10.89798 106.63355 2002 ft 231 kts 69°
2026-05-05 08:39 10.90396 106.64882 2002 ft 230 kts 70°
2026-05-05 08:39 10.90981 106.66390 2000 ft 229 kts 70°
2026-05-05 08:39 10.91362 106.67372 1994 ft 228 kts 70°
2026-05-05 08:40 10.91656 106.68129 1977 ft 229 kts 70°
2026-05-05 08:40 10.92321 106.69839 1964 ft 229 kts 70°
2026-05-05 08:40 10.92909 106.71348 1971 ft 229 kts 70°
2026-05-05 08:40 10.93496 106.72856 1971 ft 229 kts 70°
2026-05-05 08:41 10.94085 106.74366 1971 ft 230 kts 70°
2026-05-05 08:41 10.94667 106.75856 1971 ft 230 kts 70°
2026-05-05 08:41 10.95157 106.77111 1971 ft 230 kts 70°
2026-05-05 08:42 10.95543 106.78596 1960 ft 226 kts 85°
2026-05-05 08:42 10.95159 106.80153 1971 ft 225 kts 116°
2026-05-05 08:42 10.94045 106.81257 1969 ft 228 kts 146°
2026-05-05 08:43 10.92502 106.81627 1971 ft 232 kts 176°
2026-05-05 08:43 10.90958 106.81167 1981 ft 250 kts 205°
2026-05-05 08:43 10.89590 106.80083 1970 ft 256 kts 223°
2026-05-05 08:43 10.88415 106.78721 1962 ft 259 kts 228°
2026-05-05 08:44 10.87307 106.77385 1970 ft 259 kts 229°
2026-05-05 08:44 10.86257 106.75852 1968 ft 252 kts 237°
2026-05-05 08:44 10.85502 106.74343 1961 ft 228 kts 244°
2026-05-05 08:44 10.84960 106.72932 1890 ft 199 kts 248°
2026-05-05 08:45 10.84664 106.72050 1563 ft 202 kts 250°
2026-05-05 08:45 10.84083 106.70265 975 ft 185 kts 248°
2026-05-05 08:45 10.83658 106.69111 636 ft 173 kts 245°
2026-05-05 08:45 10.83210 106.68061 392 ft 150 kts 242°
2026-05-05 08:46 10.82830 106.67142 213 ft 134 kts 243°
2026-05-05 08:46 10.82485 106.66276 63 ft 131 kts 243°
2026-05-05 08:46 10.82184 106.65498 48 ft 105 kts 244°
2026-05-05 08:46 10.81962 106.64963 47 ft 58 kts 250°
2026-05-05 08:47 10.81835 106.64615 47 ft 49 kts 248°
2026-05-05 08:47 10.81685 106.64360 47 ft 35 kts 219°
2026-05-05 08:47 10.81546 106.64293 47 ft 13 kts 172°
2026-05-05 08:47 10.81461 106.64323 47 ft 12 kts 158°
2026-05-05 08:48 10.81416 106.64341 47 ft 12 kts 158°
2026-05-05 08:48 10.81343 106.64371 47 ft 11 kts 158°
2026-05-05 08:48 10.81300 106.64388 47 ft 11 kts 158°
2026-05-05 08:48 10.81246 106.64421 47 ft 8 kts 121°
2026-05-05 08:49 10.81253 106.64473 47 ft 8 kts 66°
2026-05-05 08:49 10.81279 106.64541 47 ft 16 kts 69°
2026-05-05 08:49 10.81332 106.64686 47 ft 27 kts 71°
2026-05-05 08:49 10.81381 106.64821 47 ft 34 kts 69°
2026-05-05 08:50 10.81437 106.64979 47 ft 38 kts 71°
2026-05-05 08:50 10.81464 106.65038 47 ft 8 kts 68°
2026-05-05 08:50 10.81498 106.65130 47 ft 17 kts 69°
2026-05-05 08:50 10.81551 106.65272 47 ft 26 kts 70°
2026-05-05 08:51 10.81623 106.65450 47 ft 26 kts 68°
2026-05-05 08:51 10.81688 106.65615 47 ft 23 kts 68°
2026-05-05 08:51 10.81723 106.65737 47 ft 15 kts 99°
2026-05-05 08:51 10.81690 106.65830 47 ft 14 kts 110°
2026-05-05 08:52 10.81691 106.65920 47 ft 13 kts 70°
2026-05-05 08:52 10.81723 106.66001 47 ft 12 kts 68°
2026-05-05 08:52 10.81751 106.66076 47 ft 11 kts 69°
2026-05-05 08:52 10.81778 106.66149 47 ft 10 kts 69°
2026-05-05 08:53 10.81804 106.66215 47 ft 10 kts 69°
2026-05-05 08:53 10.81827 106.66277 47 ft 9 kts 69°
2026-05-05 08:53 10.81851 106.66338 47 ft 11 kts 69°
2026-05-05 08:53 10.81858 106.66399 47 ft 7 kts 122°
2026-05-05 08:54 10.81826 106.66420 47 ft 6 kts 159°
2026-05-05 08:54 10.81792 106.66433 47 ft 0 kts 158°
2026-05-05 08:54 10.81778 106.66439 47 ft 0 kts 159°